Flag for Germany Weather past 2 weeks in Nürburg, Rhineland-Palatinate, Germany

36 °F

Low clouds.

Feels Like: 32 °F
Forecast: 27 / 36 °F
Wind: 5 mph from Northwest

Location: Nuerburg-Barweiler

Current Time: Nov 26, 2015 at 10:53:27 AM

Latest Report: Nov 26, 2015 at 9:00 AM

Visibility: 6 mi

Pressure: 30.00 "Hg (27.85 "Hg at 601m altitude)

Humidity: 99%

Dew point: 36 °F

Location of NürburgLocation

Historic Weather in Nürburg — Graph


Nürburg temperature yesterday

Maximum temperature yesterday: 38 °F (at 12:00 PM)
Minimum temperature yesterday: 34 °F (at 9:00 AM)
Average temperature yesterday: 36 °F

Past Weeks' High & Low Weather Summary

High55 °F (Nov 17, 1:00 PM)100% (Nov 17, 11:00 AM)30.37 "Hg (Nov 17, 11:00 AM)
Low28 °F (Nov 24, 9:00 AM)71% (Nov 18, 4:00 PM)29.41 "Hg (Nov 21, 12:00 PM)
Average43 °F89%29.99 "Hg
* Reported Nov 11 9:00 AM — Nov 26 9:00 AM, Nürburg, Weather by CustomWeather, © 2015

Note: Actual official high and low records may vary slightly from our data, if they occured in-between our weather recording intervals... More about our weather records


Nürburg weather history for previous 24 hours

Time TempWeatherWind HumidityBarometerVisibility
9:00 AM
Thu, Nov 26
36 °FLow clouds.5 mph99%30.00 "Hg6 mi
8:00 AM36 °FLow clouds.5 mph98%29.98 "Hg6 mi
7:00 AM36 °FLow clouds.5 mph99%29.95 "Hg7 mi
3:00 AM36 °FLow clouds.3 mph99%29.87 "Hg16 mi
1:00 AM36 °FLight freezing rain. Low clouds.2 mph98%29.84 "Hg6 mi
12:00 AM36 °FDrizzle. Low clouds.2 mph98%29.83 "Hg4 mi
11:00 PM
Wed, Nov 25
35 °FLow clouds.3 mph100%29.82 "Hg6 mi
10:00 PM36 °FLight rain. Low clouds.3 mph98%29.81 "Hg2 mi
9:00 PM36 °FFog.3 mph98%29.80 "Hg4 mi
8:00 PM36 °FLow clouds.2 mph98%29.78 "Hg6 mi
7:00 PM36 °FLow clouds.2 mph97%29.76 "Hg8 mi
6:00 PM35 °FDrizzle. Low clouds.3 mph99%29.75 "Hg9 mi
5:00 PM35 °FLight rain. Low clouds.3 mph99%29.74 "Hg16 mi
4:00 PM36 °FLight rain. Low clouds.5 mph96%29.72 "Hg16 mi
3:00 PM38 °FScattered clouds.3 mph89%29.71 "Hg25 mi
2:00 PM36 °FPartly sunny.3 mph95%29.72 "Hg28 mi
1:00 PM35 °FLight rain. Low clouds.3 mph98%29.75 "Hg28 mi
12:00 PM38 °FLow clouds.5 mph91%29.74 "Hg9 mi
11:00 AM37 °FLow clouds.5 mph95%29.76 "Hg7 mi
Weather by CustomWeather, © 2015

See weather overviewHow to use our weather pages